Temperature
16 17 17 17 17 16 16 15 15 16 16 16 16 15 16 17 17 17 17 17 17 17 17 17 17 17 17 17 16 16 16 16 16 15 15 15 15 15 15 15 14 14 14 14
16 17 17 17 17 16 16 16 16 16 16 16 16 16 16 16 16 16 17 17 17 17 17 17 17 17 17 16 16 16 16 16 15 15 15 15 15 15 14 14 14 14 14 14
15 16 17 17 17 17 16 16 16 16 16 16 15 15 16 16 16 17 17 17 17 17 17 17 17 17 17 16 16 16 16 16 15 15 15 15 15 15 14 14 14 14 14 14
14 16 16 17 17 17 17 16 16 16 16 16 16 16 17 17 17 17 17 17 17 17 17 17 17 17 16 16 16 16 16 16 15 15 15 15 15 14 14 14 14 14 14 14
13 14 15 17 17 17 17 16 16 16 15 16 16 16 16 17 17 17 18 18 17 17 17 17 17 16 16 16 16 16 16 16 15 15 15 15 14 14 14 14 14 14 13 13
13 15 15 16 17 18 17 16 16 16 15 15 15 14 15 17 17 17 17 17 17 17 17 17 16 16 16 16 16 16 16 15 15 15 15 15 14 14 14 14 14 13 13 13
13 14 15 16 17 17 17 16 17 17 17 16 16 16 17 18 17 17 17 17 17 17 17 17 16 16 16 16 16 16 15 15 15 15 15 14 14 14 14 13 13 13 13 13
12 14 15 16 16 16 17 18 18 18 18 17 17 17 17 17 17 17 17 17 17 17 17 16 16 16 16 16 15 15 15 15 15 15 14 14 14 14 13 13 13 13 13 12
13 14 15 16 17 18 19 18 18 18 18 18 17 17 17 17 17 17 17 17 17 17 16 16 16 16 16 16 15 15 15 15 15 14 14 14 13 13 13 13 13 13 12 12
12 13 15 17 18 18 19 19 19 19 18 18 17 17 17 16 16 16 16 16 16 16 16 16 16 16 16 15 15 15 15 14 14 14 14 13 13 13 13 13 12 12 12 12
13 13 15 17 18 18 19 19 19 18 18 17 17 17 17 16 16 16 16 16 16 16 16 16 16 15 15 15 15 15 14 14 14 14 13 13 13 13 12 12 12 12 12 12
14 15 14 16 18 18 18 18 18 18 17 17 17 17 17 16 16 16 16 16 16 16 15 15 15 15 15 15 14 14 14 14 13 13 13 13 13 12 12 12 11 11 11 11
16 17 17 17 17 18 18 18 18 18 17 17 17 17 16 16 16 16 16 15 15 15 15 15 15 15 14 14 14 14 14 13 13 13 13 12 12 12 12 11 11 11 11 11
16 16 16 17 17 17 17 17 17 17 17 17 17 16 16 16 15 15 15 15 15 15 15 14 14 14 14 14 14 14 13 13 13 13 12 12 12 11 11 11 11 11 10 10
16 16 16 16 17 17 17 17 16 16 16 16 16 16 16 15 15 15 15 15 14 14 14 14 14 14 14 14 13 13 13 13 13 12 12 12 11 11 11 11 11 10 10 10
15 16 16 16 16 16 16 16 16 16 16 16 16 15 15 15 15 15 14 14 14 14 14 14 14 13 13 13 13 13 13 12 12 12 11 11 11 11 10 10 10 10 10 10
14 14 15 15 15 15 16 16 16 16 16 15 15 15 15 15 14 14 14 14 14 14 13 13 13 13 13 13 13 12 12 12 12 11 11 11 11 10 10 10 10 10 9 9
15 15 15 16 15 15 15 15 15 15 15 15 15 15 14 14 14 14 13 13 13 13 13 13 13 13 12 12 12 12 12 12 11 11 11 10 10 10 10 10 9 9 9 9
14 15 15 15 15 15 15 15 15 15 15 15 15 14 14 14 14 14 13 13 13 13 13 12 13 12 12 12 12 12 11 11 11 10 10 10 10 10 9 9 9 9 9 9
14 14 14 15 15 15 15 15 15 14 14 14 14 14 14 14 13 13 13 13 13 13 12 12 12 12 12 12 12 11 11 11 11 10 10 10 10 9 9 9 9 9 9 8
14 14 14 14 14 14 14 14 14 14 14 14 14 14 14 13 13 13 13 12 12 12 12 12 12 12 11 11 11 11 11 10 10 10 10 9 9 9 9 9 9 8 8 8
13 14 14 14 14 14 14 14 14 14 14 14 13 13 13 13 13 12 12 12 12 12 12 11 11 11 11 11 10 10 10 10 10 9 9 9 9 9 9 8 8 8 8 7
13 13 13 13 13 13 13 13 14 14 14 13 13 13 13 13 12 12 12 11 11 11 11 11 11 10 10 10 10 10 10 9 9 9 9 9 8 8 8 8 8 7 7 7
13 13 13 13 13 13 13 13 13 13 13 13 13 13 12 12 12 12 12 11 11 11 11 10 10 10 10 10 10 9 9 9 9 8 8 8 8 8 8 7 7 7 7 7
12 12 12 12 12 13 13 13 12 12 12 12 12 12 12 12 12 11 11 11 10 10 10 10 10 9 9 9 9 9 9 8 8 8 8 8 7 7 7 7 7 6 6 6
12 12 12 12 12 12 12 12 12 12 11 11 11 11 11 11 11 10 10 10 10 10 9 9 9 9 9 9 8 8 8 8 8 7 7 7 7 7 7 6 6 6 6 5
11 11 11 11 11 11 11 11 11 11 11 11 11 10 10 10 10 10 9 9 9 9 9 9 9 8 8 8 8 8 8 7 7 7 7 7 6 6 6 6 6 5 5 5
Wind_Speed
5 4 4 4 5 7 6 7 7 7 7 7 6 6 5 4 3 4 4 6 7 7 7 6 6 7 7 7 7 7 8 7 7 5 5 5 5 4 4 4 4 4 3 3
1 2 4 3 5 7 7 6 6 4 6 6 4 3 3 4 5 5 5 6 7 7 7 7 7 7 7 8 8 8 8 7 6 6 6 5 5 5 5 5 4 4 4 3
3 2 1 4 7 7 5 5 7 7 7 3 2 5 6 6 6 6 6 6 7 8 8 8 8 8 9 8 8 8 8 7 7 7 7 6 6 6 5 5 4 4 3 3
2 2 4 7 4 6 6 5 6 5 4 4 4 3 3 4 6 6 6 6 6 7 7 7 7 7 7 7 8 8 8 7 7 7 7 7 6 6 5 4 4 4 3 3
4 3 5 6 3 5 5 4 5 6 3 2 2 3 1 2 5 6 6 6 6 7 7 7 7 7 8 8 8 7 7 7 7 8 7 7 7 7 5 5 4 3 3 4
4 4 6 7 4 3 4 3 4 7 6 5 5 2 4 3 3 3 3 3 4 4 5 6 6 7 8 8 8 8 8 7 7 7 8 8 8 6 5 5 4 4 3 3
4 4 6 7 2 5 5 7 4 7 7 7 6 5 3 2 2 3 3 2 3 5 6 7 7 9 8 8 8 7 6 6 7 7 7 7 7 5 6 5 5 4 3 2
5 4 6 3 5 7 7 3 5 6 6 7 5 3 3 3 2 2 2 2 4 5 5 5 8 9 8 7 6 6 7 7 6 6 6 6 7 6 6 6 6 4 3 2
7 7 5 4 5 4 3 4 4 5 5 6 5 3 3 2 2 2 2 2 3 5 6 5 6 8 8 6 6 7 7 7 6 6 6 6 7 7 6 5 5 4 4 2
3 6 5 4 3 2 3 4 4 4 6 7 6 5 4 3 2 2 2 2 3 6 6 5 5 6 6 6 7 8 8 6 6 6 6 5 5 5 6 6 5 5 4 3
3 5 3 3 3 3 2 2 3 3 4 6 7 5 5 4 3 2 2 2 4 6 6 6 5 5 5 6 8 8 7 7 6 6 6 6 4 4 5 4 6 6 5 5
6 6 5 5 4 4 4 4 5 5 3 3 5 6 5 4 3 3 3 3 4 4 5 5 5 5 5 6 8 9 7 7 6 5 5 5 5 4 3 3 5 6 6 5
5 4 5 4 3 3 4 4 5 5 6 5 4 5 6 4 3 3 3 3 4 4 5 5 5 5 5 6 7 8 8 7 6 6 6 6 5 6 4 2 3 4 5 5
4 2 2 3 3 3 4 5 5 4 4 5 5 5 6 5 4 4 3 3 4 5 4 5 5 4 4 6 7 8 7 7 7 6 6 6 5 5 5 5 3 1 1 4
4 3 4 3 2 3 4 6 6 5 4 4 4 5 6 6 5 4 3 4 5 5 4 5 5 4 4 6 7 7 6 5 5 5 5 5 5 5 4 5 4 3 2 2
3 1 3 3 4 4 5 6 7 6 5 5 5 5 5 5 5 4 3 5 6 5 4 5 4 4 5 6 7 6 5 8 7 6 5 5 5 5 5 4 4 3 3 2
4 4 4 4 5 5 6 7 7 7 7 6 6 6 6 6 6 4 3 3 4 4 4 5 4 4 5 6 7 6 5 6 8 6 5 5 5 5 5 4 4 3 3 3
7 7 7 8 8 7 6 5 6 7 7 6 7 7 7 7 7 6 5 5 5 4 2 3 4 5 5 5 6 5 5 5 5 5 5 5 5 5 4 4 4 4 2 2
5 5 5 6 7 7 7 7 6 6 6 7 8 7 6 6 6 6 6 7 6 5 2 3 6 5 5 6 6 5 6 6 5 5 5 6 5 4 4 4 4 4 4 3
4 4 4 4 5 6 6 6 7 7 6 7 7 7 6 5 6 7 7 5 4 4 5 5 5 5 5 6 7 5 6 6 6 5 4 4 5 4 4 4 4 4 3 3
4 3 4 4 5 5 6 7 8 8 7 8 9 8 7 6 7 7 7 4 2 4 5 7 5 4 4 6 7 5 6 5 5 5 5 4 4 4 4 4 3 3 3 3
4 4 4 4 5 4 5 6 7 8 8 7 7 7 7 7 6 5 4 4 5 7 5 4 4 5 7 7 5 5 5 5 5 4 4 4 4 4 3 3 3 3 2 2
3 4 4 5 6 5 4 5 7 8 9 9 9 9 8 7 7 7 4 3 5 7 5 4 6 9 9 6 5 5 5 5 5 4 4 4 4 4 3 3 2 2 2 2
2 3 3 3 5 5 5 5 5 5 6 6 6 7 8 7 4 3 4 8 8 8 5 6 9 10 8 5 5 5 5 5 4 4 4 4 3 3 3 3 3 2 2 2
2 2 3 5 6 5 6 6 6 6 6 5 5 5 5 5 5 5 6 7 9 8 6 8 10 9 6 4 5 5 4 4 5 5 4 4 4 3 3 3 3 2 2 2
2 3 3 4 4 5 6 6 6 5 6 6 4 4 4 4 6 6 6 7 8 8 6 5 5 6 4 4 5 5 4 5 5 4 4 4 4 4 3 3 3 3 2 2
1 2 2 1 2 4 5 6 6 6 7 7 6 5 5 6 6 6 7 6 6 5 5 4 4 4 4 4 4 4 4 4 4 4 4 4 4 4 4 4 3 3 3 3
Wind_Direction
225 216 183 202 204 189 191 191 195 229 232 246 230 216 210 191 161 157 172 176 174 176 180 179 174 176 175 174 172 167 162 166 172 164 153 147 143 140 136 134 135 132 124 115
270 219 190 217 221 203 204 198 214 230 254 258 216 174 177 178 170 175 189 195 185 178 179 182 182 179 174 174 173 166 167 171 163 152 150 151 148 142 135 130 126 126 134 135
233 286 117 243 222 198 199 198 187 213 237 233 183 192 195 188 183 188 197 198 187 182 188 189 189 183 181 180 170 168 170 167 162 159 158 158 151 141 142 143 138 137 142 141
151 98 228 246 236 191 187 211 204 206 217 201 203 195 182 174 182 194 197 195 192 188 189 185 182 177 168 160 163 168 169 167 165 163 163 154 147 149 148 141 144 147 150 154
144 189 267 288 233 172 172 238 215 198 199 182 139 85 357 208 187 195 199 198 196 189 183 175 172 166 155 158 161 164 170 172 171 167 163 158 159 161 154 147 147 148 150 152
143 169 229 247 240 184 132 257 231 187 189 174 127 131 257 232 193 198 201 201 185 165 154 162 169 156 153 160 163 176 181 176 169 167 165 165 165 158 148 149 153 146 140 151
164 200 253 253 233 128 158 236 212 184 185 173 182 202 217 173 182 191 193 192 163 156 164 171 162 155 159 165 181 186 169 157 156 161 162 159 153 150 145 143 136 134 132 126
157 184 247 243 140 172 210 206 175 179 181 181 187 155 133 136 143 142 150 146 151 156 159 156 158 157 161 178 183 158 146 148 151 151 155 150 145 144 144 143 140 139 133 117
187 209 239 219 210 225 179 175 182 176 183 167 162 167 157 143 129 124 147 150 148 148 143 145 160 163 167 177 156 143 140 146 146 140 140 143 145 146 143 145 149 153 152 158
220 257 256 251 248 240 201 198 191 171 163 159 163 166 156 144 133 120 126 139 138 138 140 150 158 161 166 157 148 142 143 145 141 138 134 133 140 148 151 157 158 159 162 167
233 271 295 289 247 223 187 155 136 133 152 162 155 159 159 156 156 150 121 117 136 146 152 157 154 154 152 146 143 140 142 143 141 138 138 135 134 146 160 172 174 169 176 173
215 221 200 236 242 198 175 181 168 149 141 151 159 159 154 156 157 145 130 121 132 138 145 150 149 148 146 147 147 145 145 148 148 144 142 140 135 113 91 134 151 163 164 164
223 221 206 230 231 193 182 176 165 158 158 158 158 149 145 148 151 139 129 130 142 146 150 149 147 148 150 152 149 149 153 154 152 151 150 150 149 148 139 89 98 134 156 161
221 172 203 222 213 192 164 148 137 127 141 151 152 143 139 137 136 137 144 146 137 132 135 142 142 148 153 149 147 147 147 150 151 155 156 157 159 159 157 154 145 122 136 150
244 222 209 206 164 151 146 137 135 143 146 145 147 146 147 147 149 151 142 131 122 119 126 135 139 145 144 142 142 143 145 150 150 148 151 152 150 146 147 151 151 145 116 108
243 214 171 163 174 167 155 156 163 174 170 164 159 159 155 144 134 128 133 139 134 140 147 143 148 155 148 140 139 140 146 147 146 144 144 143 144 146 150 153 153 157 166 172
173 190 187 186 192 192 190 185 181 181 176 172 170 156 140 130 124 130 137 138 141 145 151 151 153 150 148 145 143 143 142 149 145 141 147 151 150 153 155 155 161 173 190 185
207 207 200 192 189 191 194 186 179 176 175 173 155 148 150 154 160 162 152 134 116 106 120 146 143 140 145 145 142 141 143 146 149 150 150 150 150 152 153 158 167 172 173 166
225 211 208 203 192 181 180 182 180 174 164 156 158 165 168 168 162 154 145 139 140 147 176 158 141 135 141 146 137 138 141 141 141 144 147 148 147 152 159 167 173 173 170 168
220 202 195 189 183 175 177 176 166 164 165 159 154 153 155 161 155 151 148 154 175 175 162 148 139 135 141 145 135 138 140 143 146 148 146 150 155 161 166 169 170 172 174 179
210 199 191 184 182 179 177 170 164 167 166 161 163 168 168 164 157 153 150 156 180 148 143 141 136 139 141 140 134 135 137 139 142 146 149 153 156 160 163 165 167 171 174 179
206 196 195 184 171 173 175 169 166 162 159 160 158 154 151 153 151 146 154 166 164 148 139 140 140 142 138 130 130 133 135 137 138 140 143 147 152 158 162 162 165 168 171 174
204 192 186 183 177 171 159 160 162 161 162 164 163 164 165 164 162 157 166 167 153 148 139 142 141 135 126 123 129 131 132 133 136 140 143 145 147 148 149 148 150 151 154 158
198 181 180 168 149 148 159 168 160 158 156 156 161 161 155 148 149 155 147 151 151 142 139 143 137 130 122 123 128 129 131 132 132 132 131 131 130 131 135 138 139 140 146 147
182 170 157 154 162 175 171 152 138 135 135 136 139 143 147 151 154 153 144 147 146 138 135 142 135 127 123 129 131 133 135 138 137 135 134 133 133 134 133 135 141 141 142 146
177 179 185 187 182 170 160 153 152 152 145 140 136 137 130 125 128 134 136 140 140 137 134 134 133 125 127 131 134 137 140 140 135 134 138 139 138 139 140 141 137 139 141 140
125 131 133 132 149 156 156 156 156 160 160 155 151 150 144 138 136 139 140 142 142 138 135 134 132 134 137 139 138 137 136 136 138 140 142 142 144 145 147 143 142 142 141 141
Height
1501 1499 1500 1501 1502 1505 1509 1511 1517 1512 1509 1501 1499 1498 1499 1500 1501 1504 1506 1508 1510 1512 1515 1518 1522 1525 1529 1532 1536 1539 1542 1545 1548 1550 1553 1555 1557 1558 1560 1562 1563 1564 1565 1567
1501 1497 1498 1500 1498 1500 1502 1504 1506 1505 1504 1495 1495 1497 1498 1499 1500 1502 1504 1506 1508 1510 1513 1515 1518 1522 1526 1530 1533 1537 1540 1543 1546 1549 1551 1553 1555 1557 1559 1560 1562 1563 1565 1566
1507 1501 1499 1503 1495 1496 1498 1497 1499 1503 1499 1494 1495 1495 1496 1497 1499 1500 1502 1504 1505 1507 1510 1513 1516 1519 1523 1527 1531 1534 1538 1541 1544 1547 1549 1551 1554 1555 1557 1559 1560 1562 1563 1565
1508 1506 1512 1498 1487 1488 1491 1492 1492 1492 1492 1492 1493 1493 1495 1496 1497 1498 1500 1502 1503 1506 1508 1511 1515 1518 1521 1525 1528 1532 1535 1538 1542 1544 1547 1549 1551 1553 1555 1557 1559 1560 1562 1563
1510 1511 1505 1492 1485 1486 1490 1492 1488 1490 1490 1491 1491 1493 1494 1495 1496 1497 1498 1500 1501 1503 1506 1509 1512 1516 1519 1522 1525 1529 1532 1536 1539 1542 1544 1546 1548 1551 1553 1555 1557 1559 1560 1562
1508 1508 1508 1493 1482 1481 1486 1493 1485 1486 1488 1489 1491 1496 1494 1493 1494 1496 1497 1498 1500 1502 1505 1507 1510 1513 1516 1519 1522 1526 1529 1533 1536 1539 1542 1544 1546 1549 1551 1553 1555 1557 1558 1560
1505 1504 1498 1484 1480 1482 1495 1491 1482 1483 1484 1486 1488 1490 1491 1491 1492 1494 1495 1497 1498 1500 1502 1505 1508 1511 1514 1517 1520 1524 1527 1531 1534 1537 1539 1542 1545 1547 1549 1551 1553 1555 1556 1558
1502 1503 1498 1479 1479 1483 1482 1477 1478 1480 1482 1484 1486 1488 1489 1490 1491 1492 1493 1495 1496 1498 1500 1503 1506 1509 1511 1514 1518 1522 1525 1528 1531 1534 1537 1540 1542 1545 1547 1549 1551 1552 1554 1556
1489 1488 1478 1476 1475 1475 1475 1476 1477 1478 1480 1482 1484 1486 1488 1489 1490 1491 1492 1493 1495 1496 1499 1501 1504 1507 1509 1513 1516 1519 1523 1526 1529 1532 1535 1537 1540 1542 1544 1546 1548 1550 1552 1553
1482 1477 1473 1473 1473 1473 1474 1475 1476 1477 1479 1481 1483 1485 1486 1488 1489 1490 1491 1492 1493 1496 1497 1500 1502 1505 1508 1511 1514 1517 1520 1523 1527 1529 1532 1535 1537 1540 1542 1544 1546 1547 1549 1551
1478 1473 1471 1470 1471 1472 1473 1474 1475 1477 1478 1480 1482 1483 1485 1487 1488 1489 1490 1491 1493 1494 1496 1498 1501 1504 1507 1509 1512 1515 1518 1521 1524 1527 1530 1532 1535 1537 1540 1542 1544 1545 1547 1548
1473 1469 1470 1469 1469 1470 1471 1472 1474 1475 1477 1480 1481 1482 1484 1486 1487 1488 1489 1490 1492 1494 1495 1498 1500 1502 1505 1507 1510 1513 1515 1518 1522 1525 1527 1530 1532 1535 1537 1539 1541 1543 1545 1547
1465 1465 1466 1466 1468 1469 1470 1471 1473 1474 1476 1478 1480 1482 1483 1485 1486 1487 1488 1489 1491 1492 1495 1497 1499 1501 1503 1506 1508 1511 1513 1516 1519 1522 1525 1527 1529 1532 1534 1537 1539 1541 1542 1544
1462 1463 1463 1464 1465 1467 1468 1470 1472 1474 1476 1477 1479 1481 1482 1484 1485 1486 1487 1489 1490 1492 1494 1496 1498 1500 1502 1504 1507 1509 1512 1515 1517 1520 1522 1525 1527 1529 1531 1533 1536 1538 1540 1542
1459 1460 1461 1461 1463 1465 1466 1468 1470 1472 1474 1476 1478 1479 1481 1482 1484 1485 1487 1488 1490 1491 1493 1495 1497 1498 1500 1503 1505 1507 1510 1512 1515 1518 1521 1523 1525 1527 1529 1531 1533 1535 1537 1539
1456 1457 1458 1459 1460 1462 1464 1466 1468 1470 1472 1474 1476 1478 1480 1481 1483 1484 1486 1488 1489 1491 1492 1494 1496 1498 1499 1501 1504 1506 1508 1511 1513 1516 1518 1521 1523 1525 1527 1529 1531 1533 1535 1536
1453 1454 1455 1456 1458 1460 1462 1463 1465 1467 1469 1472 1474 1476 1478 1480 1481 1483 1485 1487 1489 1491 1492 1493 1495 1497 1498 1500 1502 1504 1506 1509 1512 1514 1516 1518 1521 1523 1525 1527 1529 1531 1532 1534
1449 1450 1451 1453 1454 1456 1459 1461 1463 1465 1467 1469 1472 1474 1476 1478 1479 1481 1483 1486 1488 1490 1491 1493 1494 1495 1497 1499 1501 1503 1505 1507 1509 1512 1514 1516 1518 1521 1523 1525 1527 1528 1530 1531
1446 1447 1449 1450 1452 1454 1456 1458 1460 1463 1465 1468 1470 1472 1474 1476 1478 1480 1482 1484 1486 1488 1489 1491 1493 1494 1496 1498 1500 1502 1504 1506 1508 1510 1512 1514 1516 1519 1521 1522 1524 1525 1527 1528
1443 1445 1446 1448 1449 1451 1453 1456 1458 1460 1463 1465 1467 1469 1472 1474 1476 1478 1481 1483 1485 1487 1489 1490 1492 1493 1495 1497 1498 1500 1502 1504 1506 1508 1510 1512 1514 1516 1518 1519 1521 1522 1523 1524
1440 1441 1443 1445 1447 1449 1451 1453 1455 1457 1460 1463 1465 1467 1469 1471 1474 1476 1478 1480 1483 1485 1487 1489 1490 1492 1494 1495 1497 1499 1500 1502 1504 1506 1508 1510 1512 1514 1515 1517 1518 1519 1520 1521
1437 1438 1440 1442 1444 1446 1448 1450 1452 1455 1457 1460 1462 1465 1467 1469 1472 1474 1476 1479 1481 1483 1485 1487 1489 1490 1492 1493 1495 1497 1498 1500 1502 1504 1506 1508 1509 1511 1512 1514 1515 1516 1517 1517
1434 1435 1437 1439 1441 1443 1445 1447 1450 1452 1454 1457 1459 1462 1464 1466 1468 1471 1473 1477 1479 1481 1483 1485 1487 1489 1490 1492 1493 1495 1497 1499 1501 1503 1504 1506 1507 1509 1510 1511 1512 1513 1514 1514
1431 1433 1434 1436 1438 1440 1442 1445 1447 1450 1452 1455 1457 1459 1461 1464 1466 1469 1472 1474 1476 1479 1481 1483 1485 1487 1489 1490 1492 1494 1495 1497 1499 1501 1502 1504 1505 1507 1508 1509 1509 1510 1511 1511
1429 1430 1432 1433 1435 1437 1440 1442 1445 1447 1450 1452 1455 1457 1460 1462 1464 1466 1469 1472 1474 1477 1479 1482 1484 1486 1487 1489 1490 1492 1494 1496 1498 1499 1500 1502 1503 1504 1505 1506 1507 1508 1508 1508
1427 1428 1429 1431 1433 1435 1437 1439 1442 1444 1447 1449 1452 1455 1458 1461 1463 1465 1467 1470 1472 1475 1477 1479 1481 1484 1486 1487 1489 1491 1493 1494 1496 1497 1499 1500 1501 1502 1503 1504 1504 1505 1505 1505
1425 1426 1427 1429 1431 1432 1435 1437 1439 1442 1445 1447 1450 1453 1456 1458 1461 1463 1465 1468 1470 1472 1475 1477 1480 1482 1484 1486 1488 1489 1491 1492 1494 1495 1496 1498 1499 1500 1500 1501 1502 1502 1502 1502